Weather History for Bennettsville, SC

Change the Weather History Date:

Thursday, May 16, 2013

  Actual Average (KFLO) Record (KFLO)
Temperature  
Mean Temperature 74 °F 71 °F  
Max Temperature 89 °F 83 °F 92 °F (1952)
Min Temperature 60 °F 59 °F 46 °F (1978)
Degree Days  
Heating Degree Days 0 1  
Month to date heating degree days 20  
Since 1 July heating degree days 2520  
Cooling Degree Days 10 7  
Month to date cooling degree days 83  
Year to date cooling degree days 179  
Growing Degree Days 24 (Base 50)    
Moisture  
Dew Point 59 °F    
Average Humidity 59    
Maximum Humidity 94    
Minimum Humidity 29    
Precipitation  
Precipitation 0.00 in 0.11 in 0.33 in (1985)
Month to date precipitation 1.49  
Year to date precipitation 13.59  
Sea Level Pressure  
Sea Level Pressure 29.98 in    
Wind  
Wind Speed 4 mph (WSW)    
Max Wind Speed 9 mph    
Max Gust Speed -    
Visibility 10 miles    
Events      
T = Trace of Precipitation, MM = Missing Value Source: NWS Daily Summary

Daily Weather History Graph

Daily Weather History Graph

Search for Another Location

Airport:

Trip Planner

Search our weather history database for the weather conditions in past years. The results will help you decide how hot, cold, wet, or windy it might be!

Date:

Astronomy

May. 16, 2013 Rise Set
Actual Time 6:15 AM EDT 8:15 PM EDT
Civil Twilight 5:47 AM EDT 8:43 PM EDT
Nautical Twilight 5:13 AM EDT 9:17 PM EDT
Astronomical Twilight 4:36 AM EDT 9:54 PM EDT
Moon 11:42 AM EDT (5/16) 12:39 AM EDT (5/16)
Length of Visible Light 14h 56m
Length of Day
14h 00m
Waxing Crescent, 35% of the Moon is Illuminated
May 16
Waxing Crescent
May 18
First Quarter
May 25
Full
May 31
Last Quarter
Jun 8
New

Hourly Weather History & Observations

Time (EDT) Temp. Heat Index Dew Point Humidity Pressure Visibility Wind Dir Wind Speed Gust Speed Precip Events Conditions
12:15 AM 71.6 °F - 60.8 °F 69% 29.97 in 10.0 mi South 4.6 mph - N/A   Clear
12:35 AM 69.8 °F - 60.8 °F 73% 29.96 in 10.0 mi SSW 4.6 mph - N/A   Clear
12:55 AM 71.6 °F - 60.8 °F 69% 29.97 in 10.0 mi South 4.6 mph - N/A   Clear
1:15 AM 69.8 °F - 60.8 °F 73% 29.97 in 10.0 mi Calm Calm - N/A   Clear
1:35 AM 69.8 °F - 60.8 °F 73% 29.96 in 10.0 mi South 3.5 mph - N/A   Clear
1:55 AM 69.8 °F - 60.8 °F 73% 29.96 in 10.0 mi SSW 4.6 mph - N/A   Clear
2:15 AM 68.0 °F - 60.8 °F 78% 29.95 in 10.0 mi South 3.5 mph - N/A   Clear
2:35 AM 68.0 °F - 60.8 °F 78% 29.95 in 10.0 mi SSW 3.5 mph - N/A   Clear
2:55 AM 68.0 °F - 60.8 °F 78% 29.94 in 10.0 mi SSW 5.8 mph - N/A   Clear
3:15 AM 68.0 °F - 60.8 °F 78% 29.94 in 10.0 mi SSW 5.8 mph - N/A   Clear
3:35 AM 68.0 °F - 60.8 °F 78% 29.94 in 10.0 mi SSW 5.8 mph - N/A   Clear
3:55 AM 68.0 °F - 60.8 °F 78% 29.94 in 10.0 mi SSW 5.8 mph - N/A   Clear
4:15 AM 68.0 °F - 60.8 °F 78% 29.94 in 10.0 mi SSW 4.6 mph - N/A   Clear
4:35 AM 64.4 °F - 59.0 °F 83% 29.94 in 10.0 mi SSW 4.6 mph - N/A   Clear
4:55 AM 64.4 °F - 60.8 °F 88% 29.95 in 10.0 mi Calm Calm - N/A   Clear
5:15 AM 66.2 °F - 59.0 °F 78% 29.95 in 10.0 mi SSW 3.5 mph - N/A   Clear
5:35 AM 64.4 °F - 59.0 °F 83% 29.95 in 10.0 mi SSW 3.5 mph - N/A   Clear
5:55 AM 62.6 °F - 60.8 °F 94% 29.95 in 10.0 mi Calm Calm - N/A   Clear
6:15 AM 60.8 °F - 57.2 °F 88% 29.96 in 10.0 mi SW 3.5 mph - N/A   Clear
6:35 AM 60.8 °F - 57.2 °F 88% 29.97 in 10.0 mi Calm Calm - N/A   Clear
6:55 AM 62.6 °F - 59.0 °F 88% 29.97 in 10.0 mi Calm Calm - N/A   Clear
7:15 AM 64.4 °F - 60.8 °F 88% 29.98 in 10.0 mi Calm Calm - N/A   Clear
7:35 AM 66.2 °F - 60.8 °F 83% 29.99 in 10.0 mi Calm Calm - N/A   Clear
7:55 AM 69.8 °F - 60.8 °F 73% 30.00 in 10.0 mi Calm Calm - N/A   Clear
8:15 AM 71.6 °F - 60.8 °F 69% 30.00 in 10.0 mi Calm Calm - N/A   Clear
8:35 AM 71.6 °F - 60.8 °F 69% 30.00 in 10.0 mi SW 3.5 mph - N/A   Clear
8:55 AM 73.4 °F - 60.8 °F 65% 30.00 in 10.0 mi SW 5.8 mph - N/A   Clear
9:15 AM 77.0 °F - 60.8 °F 57% 30.01 in 10.0 mi WSW 5.8 mph - N/A   Clear
9:35 AM 78.8 °F - 60.8 °F 54% 30.01 in 10.0 mi West 6.9 mph - N/A   Clear
9:55 AM 80.6 °F 81.5 °F 60.8 °F 51% 30.01 in 10.0 mi West 3.5 mph - N/A   Clear
10:15 AM 80.6 °F 81.5 °F 60.8 °F 51% 30.01 in 10.0 mi WSW 3.5 mph - N/A   Clear
10:35 AM 80.6 °F 81.5 °F 60.8 °F 51% 30.02 in 10.0 mi SW 4.6 mph - N/A   Clear
10:55 AM 82.4 °F 82.5 °F 59.0 °F 45% 30.02 in 10.0 mi SW 3.5 mph - N/A   Clear
11:15 AM 82.4 °F 82.5 °F 59.0 °F 45% 30.02 in 10.0 mi West 3.5 mph - N/A   Clear
11:35 AM 84.2 °F 83.5 °F 57.2 °F 40% 30.02 in 10.0 mi WNW 3.5 mph - N/A   Clear
11:55 AM 87.8 °F 86.1 °F 55.4 °F 33% 30.02 in 10.0 mi West 5.8 mph - N/A   Clear
12:15 PM 89.6 °F 87.7 °F 55.4 °F 31% 30.02 in 10.0 mi NW 9.2 mph - N/A   Clear
12:35 PM 89.6 °F 87.7 °F 55.4 °F 31% 30.01 in 10.0 mi NW 5.8 mph - N/A   Clear
12:55 PM 89.6 °F 87.7 °F 55.4 °F 31% 30.00 in 10.0 mi West 6.9 mph - N/A   Clear
1:15 PM 89.6 °F 87.3 °F 53.6 °F 29% 30.00 in 10.0 mi West 4.6 mph - N/A   Clear
1:35 PM 87.8 °F 85.7 °F 53.6 °F 31% 29.99 in 10.0 mi West 6.9 mph - N/A   Clear
1:55 PM 89.6 °F 87.3 °F 53.6 °F 29% 29.98 in 10.0 mi West 5.8 mph - N/A   Clear
2:35 PM 87.8 °F 86.1 °F 55.4 °F 33% 29.98 in 10.0 mi West 5.8 mph - N/A   Clear
2:55 PM 87.8 °F 86.1 °F 55.4 °F 33% 29.98 in 10.0 mi West 5.8 mph - N/A   Clear
3:15 PM 87.8 °F 86.1 °F 55.4 °F 33% 29.98 in 10.0 mi West 4.6 mph - N/A   Clear
3:35 PM 87.8 °F 86.5 °F 57.2 °F 35% 29.98 in 10.0 mi West 5.8 mph - N/A   Clear
3:55 PM 86.0 °F 84.9 °F 57.2 °F 37% 29.98 in 10.0 mi WSW 6.9 mph - N/A   Clear
4:15 PM 82.4 °F 81.7 °F 55.4 °F 39% 29.98 in 10.0 mi WSW 5.8 mph - N/A   Clear
4:35 PM 86.0 °F 84.5 °F 55.4 °F 35% 29.97 in 10.0 mi West 4.6 mph - N/A   Clear
4:55 PM 86.0 °F 84.9 °F 57.2 °F 37% 29.96 in 10.0 mi West 4.6 mph - N/A   Clear
5:15 PM 84.2 °F 83.8 °F 59.0 °F 42% 29.96 in 10.0 mi West 4.6 mph - N/A   Clear
5:35 PM 82.4 °F 82.9 °F 60.8 °F 48% 29.95 in 10.0 mi Calm Calm - N/A   Clear
5:55 PM 82.4 °F 82.9 °F 60.8 °F 48% 29.95 in 10.0 mi SW 3.5 mph - N/A   Clear
6:15 PM 80.6 °F 81.8 °F 62.6 °F 54% 29.95 in 10.0 mi Calm Calm - N/A   Clear
6:35 PM 80.6 °F 81.8 °F 62.6 °F 54% 29.95 in 10.0 mi WSW 3.5 mph - N/A   Clear
6:55 PM 80.6 °F 81.5 °F 60.8 °F 51% 29.96 in 10.0 mi WSW 4.6 mph - N/A   Clear
7:15 PM 78.8 °F - 62.6 °F 57% 29.96 in 10.0 mi WSW 3.5 mph - N/A   Scattered Clouds
7:35 PM 78.8 °F - 60.8 °F 54% 29.96 in 10.0 mi WSW 4.6 mph - N/A   Scattered Clouds
7:55 PM 78.8 °F - 62.6 °F 57% 29.97 in 10.0 mi Calm Calm - N/A   Clear
8:15 PM 77.0 °F - 62.6 °F 61% 29.98 in 10.0 mi Calm Calm - N/A   Clear
8:35 PM 75.2 °F - 60.8 °F 61% 29.99 in 10.0 mi WSW 4.6 mph - N/A   Clear
8:55 PM 77.0 °F - 60.8 °F 57% 30.00 in 10.0 mi SW 8.1 mph - N/A   Clear
9:15 PM 77.0 °F - 59.0 °F 54% 30.00 in 10.0 mi SW 9.2 mph - N/A   Clear
9:35 PM 75.2 °F - 59.0 °F 57% 30.01 in 10.0 mi SW 6.9 mph - N/A   Clear
9:55 PM 75.2 °F - 59.0 °F 57% 30.01 in 10.0 mi SW 6.9 mph - N/A   Clear
10:15 PM 77.0 °F - 60.8 °F 57% 30.02 in 10.0 mi SW 5.8 mph - N/A   Clear
10:35 PM 77.0 °F - 60.8 °F 57% 30.03 in 10.0 mi WSW 5.8 mph - N/A   Clear
10:55 PM 75.2 °F - 60.8 °F 61% 30.02 in 10.0 mi SW 4.6 mph - N/A   Clear
11:15 PM 71.6 °F - 60.8 °F 69% 30.02 in 10.0 mi SW 3.5 mph - N/A   Clear
11:35 PM 71.6 °F - 60.8 °F 69% 30.02 in 10.0 mi Calm Calm - N/A   Clear
11:55 PM 71.6 °F - 60.8 °F 69% 30.02 in 10.0 mi SW 3.5 mph - N/A   Clear